• Em Portugal
  • Lista de países
  • Para 7 dias
  • Temperatura da água
  • Mapas de satélite
  • Mapa do tempo
  • Widgets de tempo
  • user-avatar
    Iniciar Sessão

    Previsão horária em Darvin

    Hoje, 27 Maio, Domingo

    Tempo Temperatura Precipitação Vento Pressão Humidade
    00:00 +26°C° 0 mm 2 m/s 759 mmHg 76%
    01:00 +26°C° 0 mm 2 m/s 759 mmHg 77%
    02:00 +25°C° 0 mm 3 m/s 759 mmHg 77%
    03:00 +25°C° 0 mm 3 m/s 759 mmHg 78%
    04:00 +25°C° 0 mm 3 m/s 759 mmHg 76%
    05:00 +25°C° 0 mm 3 m/s 759 mmHg 74%
    06:00 +24°C° 0 mm 3 m/s 759 mmHg 72%
    07:00 +26°C° 0 mm 4 m/s 759 mmHg 67%
    08:00 +28°C° 0 mm 4 m/s 759 mmHg 62%
    09:00 +29°C° 0 mm 4 m/s 759 mmHg 56%
    10:00 +32°C° 0 mm 4 m/s 759 mmHg 49%
    11:00 +34°C° 0 mm 4 m/s 759 mmHg 42%
    12:00 +36°C° 0 mm 3 m/s 759 mmHg 34%
    13:00 +37°C° 0 mm 3 m/s 758 mmHg 33%
    14:00 +37°C° 0 mm 3 m/s 757 mmHg 31%
    15:00 +37°C° 0 mm 4 m/s 757 mmHg 30%
    16:00 +35°C° 0 mm 3 m/s 757 mmHg 36%
    17:00 +33°C° 0 mm 3 m/s 757 mmHg 43%
    18:00 +30°C° 0 mm 3 m/s 757 mmHg 50%
    19:00 +29°C° 0 mm 3 m/s 757 mmHg 56%
    20:00 +28°C° 0 mm 2 m/s 758 mmHg 63%
    21:00 +27°C° 0 mm 2 m/s 758 mmHg 70%
    22:00 +27°C° 0 mm 2 m/s 758 mmHg 73%
    23:00 +26°C° 0 mm 2 m/s 759 mmHg 77%

    Amanhã, 28 Maio, Segunda-feira

    Tempo Temperatura Precipitação Vento Pressão Humidade
    00:00 +26°C° 0 mm 1 m/s 759 mmHg 80%
    01:00 +26°C° 0,1 mm 2 m/s 759 mmHg 81%
    02:00 +26°C° 0,1 mm 2 m/s 758 mmHg 81%
    03:00 +26°C° 0,1 mm 3 m/s 758 mmHg 82%
    04:00 +25°C° 0,1 mm 3 m/s 758 mmHg 81%
    05:00 +25°C° 0,1 mm 4 m/s 758 mmHg 81%
    06:00 +25°C° 0,1 mm 4 m/s 758 mmHg 81%
    07:00 +26°C° 0 mm 4 m/s 759 mmHg 73%
    08:00 +28°C° 0 mm 4 m/s 759 mmHg 65%
    09:00 +29°C° 0 mm 4 m/s 759 mmHg 56%
    10:00 +32°C° 0 mm 4 m/s 759 mmHg 48%
    11:00 +34°C° 0 mm 4 m/s 759 mmHg 39%
    12:00 +36°C° 0 mm 4 m/s 758 mmHg 31%
    13:00 +37°C° 0 mm 4 m/s 758 mmHg 29%
    14:00 +37°C° 0 mm 4 m/s 757 mmHg 28%
    15:00 +37°C° 0 mm 3 m/s 756 mmHg 27%
    16:00 +36°C° 0 mm 3 m/s 757 mmHg 32%
    17:00 +34°C° 0 mm 3 m/s 757 mmHg 37%
    18:00 +31°C° 0 mm 2 m/s 757 mmHg 42%
    19:00 +29°C° 0 mm 2 m/s 757 mmHg 46%
    20:00 +28°C° 0 mm 2 m/s 758 mmHg 50%
    21:00 +27°C° 0 mm 2 m/s 758 mmHg 54%
    22:00 +27°C° 0 mm 1 m/s 759 mmHg 58%
    23:00 +26°C° 0 mm 1 m/s 759 mmHg 61%

    Depois de amanhã, 29 Maio, Terça-feira

    Tempo Temperatura Precipitação Vento Pressão Humidade
    00:00 +26°C° 0 mm 1 m/s 759 mmHg 64%
    01:00 +26°C° 0 mm 2 m/s 759 mmHg 63%
    02:00 +25°C° 0 mm 2 m/s 759 mmHg 62%
    03:00 +25°C° 0 mm 2 m/s 758 mmHg 61%
    04:00 +25°C° 0 mm 2 m/s 758 mmHg 63%
    05:00 +24°C° 0 mm 2 m/s 758 mmHg 64%
    06:00 +24°C° 0 mm 3 m/s 759 mmHg 65%
    07:00 +26°C° 0 mm 3 m/s 759 mmHg 60%
    08:00 +27°C° 0 mm 4 m/s 759 mmHg 54%
    09:00 +29°C° 0 mm 5 m/s 760 mmHg 49%
    10:00 +32°C° 0 mm 5 m/s 759 mmHg 43%
    11:00 +34°C° 0 mm 5 m/s 759 mmHg 36%
    12:00 +36°C° 0 mm 5 m/s 758 mmHg 30%
    13:00 +36°C° 0 mm 4 m/s 758 mmHg 29%
    14:00 +37°C° 0 mm 4 m/s 757 mmHg 29%
    15:00 +37°C° 0 mm 3 m/s 756 mmHg 28%
    16:00 +36°C° 0 mm 3 m/s 756 mmHg 32%
    17:00 +34°C° 0 mm 2 m/s 757 mmHg 35%
    18:00 +31°C° 0 mm 2 m/s 757 mmHg 39%
    19:00 +30°C° 0 mm 2 m/s 757 mmHg 41%
    20:00 +29°C° 0 mm 2 m/s 758 mmHg 43%
    21:00 +28°C° 0 mm 2 m/s 759 mmHg 45%
    22:00 +28°C° 0 mm 2 m/s 759 mmHg 47%
    23:00 +28°C° 0 mm 3 m/s 759 mmHg 49%

    30 Maio, Quarta-feira

    Tempo Temperatura Precipitação Vento Pressão Humidade
    00:00 +27°C° 0 mm 3 m/s 759 mmHg 51%
    01:00 +27°C° 0 mm 3 m/s 759 mmHg 53%
    02:00 +26°C° 0 mm 4 m/s 758 mmHg 55%
    03:00 +25°C° 0 mm 4 m/s 758 mmHg 57%
    04:00 +25°C° 0 mm 5 m/s 759 mmHg 57%
    05:00 +24°C° 0 mm 6 m/s 759 mmHg 58%
    06:00 +24°C° 0 mm 6 m/s 759 mmHg 59%
    07:00 +26°C° 0 mm 7 m/s 760 mmHg 55%
    08:00 +28°C° 0 mm 8 m/s 760 mmHg 51%
    09:00 +29°C° 0 mm 8 m/s 760 mmHg 48%
    10:00 +32°C° 0 mm 8 m/s 760 mmHg 43%
    11:00 +33°C° 0 mm 7 m/s 759 mmHg 38%
    12:00 +35°C° 0 mm 7 m/s 759 mmHg 33%
    13:00 +35°C° 0 mm 6 m/s 758 mmHg 33%
    14:00 +36°C° 0 mm 5 m/s 757 mmHg 32%
    15:00 +36°C° 0 mm 5 m/s 757 mmHg 31%
    16:00 +35°C° 0 mm 4 m/s 757 mmHg 35%
    17:00 +33°C° 0 mm 3 m/s 757 mmHg 38%
    18:00 +31°C° 0 mm 3 m/s 757 mmHg 42%
    19:00 +30°C° 0 mm 3 m/s 758 mmHg 43%
    20:00 +29°C° 0 mm 3 m/s 759 mmHg 45%
    21:00 +29°C° 0 mm 3 m/s 759 mmHg 46%
    22:00 +29°C° 0 mm 4 m/s 759 mmHg 48%
    23:00 +28°C° 0 mm 5 m/s 760 mmHg 51%

    31 Maio, Quinta-feira

    Tempo Temperatura Precipitação Vento Pressão Humidade
    00:00 +28°C° 0 mm 6 m/s 760 mmHg 53%
    01:00 +27°C° 0 mm 7 m/s 759 mmHg 56%
    02:00 +27°C° 0 mm 7 m/s 759 mmHg 59%
    03:00 +26°C° 0 mm 7 m/s 759 mmHg 62%
    04:00 +24°C° 0 mm 7 m/s 759 mmHg 62%
    05:00 +24°C° 0 mm 7 m/s 760 mmHg 62%
    06:00 +24°C° 0 mm 7 m/s 760 mmHg 61%
    07:00 +26°C° 0 mm 7 m/s 760 mmHg 55%
    08:00 +27°C° 0 mm 8 m/s 761 mmHg 48%
    09:00 +29°C° 0 mm 8 m/s 761 mmHg 41%
    10:00 +31°C° 0 mm 8 m/s 760 mmHg 39%
    11:00 +33°C° 0 mm 7 m/s 760 mmHg 37%
    12:00 +34°C° 0 mm 7 m/s 759 mmHg 34%
    13:00 +35°C° 0 mm 6 m/s 759 mmHg 33%
    14:00 +35°C° 0 mm 5 m/s 758 mmHg 33%
    15:00 +36°C° 0 mm 4 m/s 757 mmHg 32%
    16:00 +34°C° 0 mm 4 m/s 757 mmHg 36%
    17:00 +33°C° 0 mm 3 m/s 758 mmHg 39%
    18:00 +31°C° 0 mm 2 m/s 758 mmHg 43%
    19:00 +30°C° 0 mm 3 m/s 758 mmHg 44%
    20:00 +30°C° 0 mm 3 m/s 759 mmHg 46%
    21:00 +30°C° 0 mm 3 m/s 760 mmHg 47%
    22:00 +29°C° 0 mm 4 m/s 760 mmHg 51%
    23:00 +28°C° 0 mm 6 m/s 759 mmHg 56%

    1 Junho, Sexta-feira

    Tempo Temperatura Precipitação Vento Pressão Humidade
    00:00 +27°C° 0 mm 7 m/s 759 mmHg 60%
    01:00 +26°C° 0 mm 7 m/s 759 mmHg 60%
    02:00 +26°C° 0 mm 7 m/s 759 mmHg 60%
    03:00 +24°C° 0 mm 7 m/s 759 mmHg 60%
    04:00 +24°C° 0 mm 7 m/s 759 mmHg 59%
    05:00 +23°C° 0 mm 7 m/s 759 mmHg 59%
    06:00 +23°C° 0 mm 7 m/s 760 mmHg 58%
    07:00 +24°C° 0 mm 7 m/s 760 mmHg 54%
    08:00 +26°C° 0 mm 7 m/s 760 mmHg 51%
    09:00 +28°C° 0 mm 8 m/s 761 mmHg 47%
    10:00 +29°C° 0 mm 7 m/s 760 mmHg 44%
    11:00 +32°C° 0 mm 6 m/s 760 mmHg 40%
    12:00 +34°C° 0 mm 6 m/s 759 mmHg 36%
    13:00 +34°C° 0 mm 5 m/s 759 mmHg 35%
    14:00 +35°C° 0 mm 4 m/s 758 mmHg 34%
    15:00 +35°C° 0 mm 4 m/s 757 mmHg 34%
    16:00 +34°C° 0 mm 3 m/s 758 mmHg 38%
    17:00 +31°C° 0 mm 3 m/s 758 mmHg 42%
    18:00 +30°C° 0 mm 2 m/s 758 mmHg 45%
    19:00 +29°C° 0 mm 2 m/s 758 mmHg 46%
    20:00 +28°C° 0 mm 2 m/s 759 mmHg 46%
    21:00 +27°C° 0 mm 2 m/s 760 mmHg 46%
    22:00 +27°C° 0 mm 3 m/s 760 mmHg 49%
    23:00 +27°C° 0 mm 4 m/s 760 mmHg 51%
    Mostrar mais